Theta_e
315 311 308 306 306 307 305 305 304 304 303 301 300 299 298 298 298 297 297 297 295 294 295 293 292 293 291 291 291 291 291 291 288 289 292 291 289 290 291 290 291 290 288
310 309 307 305 304 302 301 300 300 298 298 297 297 296 295 295 295 294 293 293 291 290 290 289 288 289 287 288 288 288 288 288 287 285 288 287 287 288 287 286 288 287 286
303 305 304 304 303 300 298 297 297 296 296 295 295 293 293 292 291 291 290 289 288 288 288 286 286 286 284 285 285 285 285 286 286 284 284 286 285 286 283 283 284 283 285
298 300 300 300 300 298 297 296 295 294 292 292 291 290 289 289 288 288 288 287 286 286 286 285 284 284 284 284 283 283 284 283 282 282 282 282 281 282 281 280 280 281 282
292 291 290 291 292 291 291 291 290 290 289 289 288 287 287 287 286 285 285 285 284 284 285 285 284 284 286 285 284 283 283 282 282 281 280 280 280 280 279 281 280 280 280
288 287 288 288 288 287 286 286 286 287 286 286 285 285 285 286 288 288 285 284 283 283 282 282 283 282 283 285 285 285 284 282 281 280 279 278 279 279 281 280 279 277 275
285 285 286 286 285 285 285 285 284 284 284 283 283 284 284 285 287 287 285 283 282 282 282 281 282 282 282 282 283 283 283 284 284 280 278 278 278 279 279 278 277 277 276
284 283 285 283 284 285 282 281 281 281 281 282 282 282 283 285 287 286 285 282 281 281 281 281 280 280 282 281 280 279 279 280 279 279 278 278 279 279 278 277 275 275 274
282 283 282 283 282 282 281 281 280 280 280 280 281 281 282 283 286 285 283 281 281 280 280 280 280 280 282 282 279 277 278 278 279 281 280 280 281 280 278 274 271 269 268
282 282 282 283 282 281 281 280 280 280 280 280 280 281 281 282 285 285 283 281 280 280 280 280 282 280 281 281 277 277 275 275 276 274 275 277 277 275 276 274 273 268 268
281 281 281 280 280 280 279 279 279 279 279 279 279 279 280 280 282 284 283 280 280 280 279 279 279 280 279 280 278 277 276 274 273 272 272 273 272 272 272 273 272 271 268
279 279 279 279 280 280 279 278 278 278 278 277 277 277 278 279 281 283 283 281 280 279 278 278 277 278 278 278 277 277 275 273 270 269 269 268 269 269 270 271 271 271 270
278 278 278 279 279 279 278 278 277 278 277 276 276 276 276 277 278 282 282 281 281 278 277 277 277 277 276 274 276 275 272 270 268 265 266 267 268 269 269 268 269 268 268
276 276 275 275 276 277 278 278 278 277 276 276 276 275 275 275 275 277 277 277 278 275 274 273 275 274 274 272 271 271 270 269 267 266 265 266 267 266 265 266 264 265 263
275 275 275 273 273 274 274 275 276 276 277 276 275 275 274 274 275 277 276 273 271 274 266 265 265 267 267 267 266 266 267 266 265 265 264 263 264 264 264 264 263 262 259
273 272 272 271 270 272 273 272 279 280 282 282 281 277 275 278 280 279 279 278 276 274 261 259 262 264 264 264 263 262 263 262 263 262 260 260 261 261 262 262 262 258 259
272 272 271 271 272 271 269 270 270 273 280 281 281 280 280 279 278 278 277 276 274 269 257 258 260 262 262 262 261 261 260 261 261 259 259 260 261 260 259 259 259 259 259
267 269 271 271 271 269 269 268 267 267 266 265 276 277 279 278 277 277 275 271 259 261 256 256 256 257 258 258 258 257 257 257 256 257 256 255 254 254 257 257 258 258 258
269 269 269 267 267 268 268 267 266 265 264 263 262 273 272 276 277 274 272 258 257 255 254 255 255 255 255 255 254 253 253 253 254 251 251 251 252 252 257 258 258 257 257
267 268 268 269 267 267 267 267 266 266 265 265 264 263 259 261 259 258 257 255 254 254 254 255 253 251 251 251 251 250 249 249 250 250 253 252 253 253 257 257 256 256 256
269 268 269 268 268 269 269 268 268 267 266 264 262 261 267 262 261 259 255 254 254 254 256 254 252 250 249 249 248 248 248 252 250 250 250 253 255 255 256 256 255 255 256
270 269 269 270 267 267 268 267 267 266 265 264 263 265 274 261 259 257 254 257 256 257 257 257 251 249 249 249 248 247 248 251 252 248 250 254 256 256 253 254 255 256 257
270 268 267 264 268 266 265 265 267 267 267 265 263 261 260 257 257 257 258 257 259 258 257 253 249 248 247 247 246 248 250 253 253 249 254 255 254 254 251 255 257 256 256
270 269 268 266 266 266 267 269 268 266 264 261 259 258 258 256 257 259 259 258 256 256 250 249 249 251 250 251 249 248 249 252 252 254 253 254 255 255 255 256 256 255 256
268 267 267 268 268 269 268 265 264 263 262 260 259 259 257 258 260 260 259 257 256 251 251 249 249 250 250 251 251 250 251 255 253 255 254 254 256 255 255 257 256 257 256
266 267 268 269 268 267 265 263 262 261 260 260 259 259 260 260 259 258 257 255 251 249 250 250 249 251 251 250 251 254 255 261 260 261 262 261 261 260 260 261 260 258 259
Wind_Speed
12 14 12 8 9 8 10 10 12 11 11 10 10 8 5 9 6 6 8 7 6 5 4 10 7 6 5 5 3 3 4 3 1 3 2 5 7 8 8 8 8 8 9
5 8 12 21 16 12 9 10 8 11 9 11 9 9 12 4 5 4 8 7 5 5 6 9 7 6 7 6 5 6 5 4 2 2 3 3 3 5 6 7 7 8 8
5 7 11 11 14 20 19 19 13 14 9 11 13 12 8 8 6 5 8 8 8 7 7 9 8 8 8 5 6 5 5 4 3 2 3 2 2 3 5 4 5 5 7
5 2 9 11 11 12 13 13 15 15 12 10 12 9 8 6 7 7 8 9 9 8 7 10 9 8 7 5 5 5 5 3 2 2 2 3 3 3 3 6 8 4 8
5 4 5 9 11 11 12 12 14 12 10 11 11 11 9 6 4 8 8 9 10 9 8 8 7 8 12 10 4 3 3 2 3 3 4 3 5 8 8 7 8 7 8
7 6 4 11 12 11 12 13 12 12 12 11 9 9 10 7 15 14 11 10 9 8 7 6 6 7 9 12 12 11 8 4 4 3 3 6 7 7 6 7 7 8 5
8 8 7 7 9 10 12 13 10 10 11 11 12 8 9 9 16 17 15 9 8 7 6 5 5 4 4 5 9 10 9 11 12 6 6 6 7 8 7 9 9 8 7
9 10 8 8 9 7 12 9 11 8 9 5 11 9 8 8 16 16 14 9 8 7 6 5 5 4 6 6 6 5 5 5 7 5 4 5 5 6 6 6 7 8 8
10 8 11 6 14 2 12 7 11 9 8 8 6 8 10 8 14 13 10 7 7 6 6 5 5 5 11 10 4 5 4 4 7 11 10 11 12 14 13 6 8 9 6
8 8 7 7 9 6 8 11 4 9 6 7 8 7 9 9 13 12 8 5 6 6 5 5 10 6 10 9 4 3 5 7 8 8 7 7 8 9 14 9 7 7 7
7 7 6 7 6 6 5 6 7 9 8 6 8 7 7 6 9 12 10 4 4 5 4 4 3 10 8 9 7 4 7 6 8 6 5 3 6 7 7 8 9 6 7
7 8 7 6 4 4 9 6 6 8 8 8 7 5 3 5 9 10 12 9 6 4 5 3 3 9 9 8 5 9 10 8 3 2 3 6 7 7 8 8 8 8 7
7 7 7 5 5 4 7 8 6 5 6 6 6 5 4 3 1 10 10 8 8 5 4 6 10 10 9 7 9 10 7 4 4 4 6 5 6 6 8 7 7 9 9
7 7 7 5 5 3 4 4 5 5 5 5 5 5 4 2 2 3 3 4 7 5 7 6 8 8 9 7 5 7 6 6 6 5 5 5 5 6 5 6 7 7 8
6 6 6 4 4 4 3 4 4 0 4 5 4 5 7 5 5 8 7 4 3 7 6 5 3 1 2 4 4 4 4 4 4 5 4 5 5 6 5 6 5 6 4
5 3 3 4 3 4 5 4 8 7 8 7 10 8 2 9 12 10 10 11 9 9 5 2 1 2 3 2 2 1 2 3 2 3 2 2 4 5 6 5 5 2 6
5 5 4 4 5 6 4 6 6 3 8 9 10 11 12 11 11 10 11 10 9 7 4 2 2 2 0 1 1 1 1 1 2 1 2 3 4 4 4 5 5 6 7
3 5 5 6 6 5 5 4 5 6 4 1 7 6 10 9 9 10 10 8 4 5 3 2 2 2 1 0 1 1 2 3 2 2 2 3 3 2 5 6 7 8 8
7 5 5 4 3 4 4 4 4 4 4 4 1 5 4 9 11 8 6 3 3 3 2 2 1 1 1 0 1 2 1 2 2 2 3 3 3 1 5 6 7 9 9
4 5 5 4 4 4 4 5 4 5 5 6 4 3 2 4 2 1 2 2 3 2 2 2 1 1 1 1 2 1 3 3 3 2 3 3 3 2 6 8 7 7 7
5 5 8 5 6 6 6 7 6 5 5 5 4 5 11 4 4 4 3 3 3 3 2 2 2 2 1 1 1 2 3 4 3 4 3 3 4 6 6 6 6 5 7
5 5 4 5 4 5 6 4 5 4 4 5 3 4 14 3 4 4 3 3 3 3 2 3 3 3 3 3 3 3 3 4 4 3 3 5 6 7 5 5 5 7 8
6 6 5 3 4 4 3 3 4 4 5 5 5 4 5 4 4 4 4 3 3 3 2 2 2 2 3 4 4 4 4 5 5 4 5 7 7 6 3 6 8 9 9
5 5 5 4 4 4 4 5 4 5 6 6 6 5 5 4 4 4 4 3 3 2 1 1 2 4 4 4 3 4 5 5 5 6 7 7 7 7 7 7 9 10 11
4 4 4 5 5 5 5 5 5 5 5 6 6 5 4 5 5 4 3 3 2 2 2 2 3 5 6 8 8 8 8 12 8 9 6 7 10 12 11 9 10 11 12
4 5 4 4 5 5 5 5 5 6 6 6 6 6 6 5 4 3 3 3 2 1 3 3 4 7 8 7 8 11 11 12 9 10 9 8 9 9 9 11 14 9 11
Wind_Direction
156 145 133 119 113 110 113 120 124 115 118 101 108 79 62 103 92 91 84 91 59 64 76 83 68 51 56 52 48 43 52 28 267 311 337 343 353 349 355 353 352 357 349
238 168 152 145 136 122 112 108 78 92 116 105 90 124 95 77 99 112 107 106 110 93 77 82 67 68 60 39 45 46 41 39 1 284 315 341 326 357 347 351 345 345 333
292 173 149 156 151 147 146 141 135 131 153 119 136 118 125 141 122 109 109 104 89 74 77 77 65 60 53 45 53 41 32 18 17 316 304 328 285 9 336 328 331 308 318
323 173 151 144 145 139 138 141 139 138 148 130 103 112 99 84 101 88 92 84 80 73 70 75 73 75 69 57 52 35 20 353 340 332 306 311 303 306 339 335 339 328 324
44 36 90 102 112 113 119 121 110 116 115 101 113 106 106 95 103 105 99 102 100 87 70 79 75 73 62 52 47 24 359 356 342 338 328 321 338 347 343 332 330 334 316
85 79 54 111 109 109 109 104 109 114 106 107 84 102 99 100 100 98 101 93 87 90 91 81 82 67 50 39 25 20 18 354 354 327 337 344 336 332 329 334 333 338 335
87 79 78 75 96 107 104 109 104 107 103 101 108 87 97 100 98 98 96 95 95 90 93 94 89 67 56 46 23 24 16 15 37 23 351 342 326 337 346 335 341 342 326
96 84 86 86 81 93 91 86 95 96 98 118 98 104 100 92 100 102 105 103 104 102 97 95 93 67 42 53 28 8 4 32 16 1 345 320 336 347 8 358 351 330 308
92 88 95 65 106 7 100 104 96 92 98 98 90 114 104 91 100 104 96 94 95 97 103 98 86 50 34 29 40 9 15 25 2 12 8 6 17 14 14 1 9 355 340
102 95 84 107 110 135 120 110 87 96 109 112 107 97 89 89 95 102 111 111 117 108 97 79 69 48 29 34 66 33 25 22 4 1 10 14 33 8 22 24 9 353 336
100 112 121 101 110 125 101 104 118 113 106 113 108 91 88 89 96 95 90 70 102 114 106 89 58 47 43 53 43 37 41 41 13 8 356 7 7 10 13 8 7 348 331
123 124 103 108 108 113 109 99 106 120 124 112 107 96 77 85 98 103 97 96 93 103 105 94 63 59 59 50 50 56 47 43 24 18 23 360 3 2 352 353 346 337 325
127 116 95 97 100 123 139 135 125 128 128 129 135 125 122 91 96 113 114 104 106 109 101 78 69 61 68 44 47 45 53 32 24 33 17 359 349 338 340 339 341 330 318
131 134 127 125 135 126 111 128 145 140 132 137 138 140 125 130 117 109 116 119 114 86 74 64 72 71 70 70 45 39 35 32 28 15 1 340 340 346 343 338 330 330 321
133 147 138 146 130 118 78 97 97 42 152 152 141 160 152 164 186 167 146 137 136 96 81 54 40 46 60 51 41 33 38 35 24 9 356 346 344 337 329 329 318 322 310
137 136 151 124 106 111 109 84 107 105 103 140 151 157 158 163 160 154 138 102 88 111 56 104 61 48 47 40 40 21 25 28 10 1 341 332 321 319 319 319 317 300 321
150 148 140 142 150 159 153 138 129 94 148 154 154 157 147 155 161 139 113 123 118 95 103 91 106 94 63 29 33 35 331 343 358 334 300 302 313 309 311 316 320 323 318
153 156 166 177 172 162 163 161 150 162 156 177 163 158 153 148 146 141 155 122 67 46 93 138 163 167 183 195 336 336 332 343 336 302 299 281 280 272 320 324 323 312 306
181 183 176 161 148 149 149 154 151 153 167 162 62 157 147 165 153 152 135 113 136 143 138 117 153 167 211 280 289 313 302 290 279 290 284 275 281 288 314 304 298 296 291
187 173 164 164 161 167 170 169 169 174 169 175 168 167 141 75 101 90 73 114 115 124 135 139 175 164 226 247 296 305 302 299 294 289 284 276 290 282 297 292 286 286 300
177 177 174 163 178 182 178 189 184 173 171 164 173 176 176 144 157 152 150 138 133 130 142 151 182 221 241 259 266 271 261 275 261 268 272 284 292 290 279 257 263 276 293
171 175 175 187 165 179 192 174 172 165 152 154 149 182 171 110 134 142 140 135 141 140 154 162 189 204 209 212 234 245 263 278 279 259 266 281 278 273 253 262 290 292 287
164 165 172 173 176 149 144 139 146 152 150 141 147 129 126 138 143 140 138 141 142 146 156 165 193 268 248 238 228 218 246 261 250 213 258 271 266 264 251 284 284 282 279
155 164 165 151 138 138 146 158 150 139 140 142 138 132 134 139 139 141 140 139 133 156 201 232 232 256 276 276 254 238 236 249 248 255 239 255 270 280 275 268 266 269 272
134 137 146 155 154 152 141 138 137 138 135 139 141 140 134 136 144 148 140 137 163 187 257 272 264 272 281 286 281 283 274 280 260 248 238 238 254 261 262 264 268 271 268
131 128 127 139 151 145 142 140 139 138 143 141 140 142 147 149 143 144 156 166 173 249 269 257 269 281 284 281 282 280 273 276 274 263 263 256 251 253 257 260 255 252 263